Regional Weather Roundup
Issued by NWS

Home | Current Version | Previous Version | Graphics & Text | Print | Product List | Glossary On
Versions: 1 2 3 4 5 6 7 8 9 10 11 12 13 14 15 16 17 18 19 20 21 22 23 24 25 26 27 28 29 30 31 32 33 34 35 36 37 38 39 40 41 42 43 44 45 46 47 48 49 50
000
ASUS45 KPSR 060510
RWRAZ

ARIZONA HOURLY REGIONAL WEATHER ROUNDUP
NATIONAL WEATHER SERVICE PHOENIX AZ
1000 PM MST SUN JUL 05 2015

NOTE: FAIR INDICATES FEW OR NO CLOUDS BELOW 12,000 FEET WITH NO
SIGNIFICANT WEATHER AND/OR OBSTRUCTIONS TO VISIBILITY.

AZZ001>003-036-060600-
NORTHWEST ARIZONA

CITY           SKY/WX    TMP DP  RH WIND       PRES   REMARKS
BULLHEAD CITY  CLOUDY    93  55  27 SE12      29.85R
KINGMAN        CLOUDY    80  56  43 SW8       30.07R
$$

AZZ004>008-015-016-018-060600-
NORTH CENTRAL ARIZONA

CITY           SKY/WX    TMP DP  RH WIND       PRES   REMARKS
GRAND CANYON   CLOUDY    61  54  77 S5        30.29R
WILLIAMS       RAIN      57  55  94 S7        30.42R
PRESCOTT       CLOUDY    62  60  93 NE7       30.26R
FLAGSTAFF      CLOUDY    60  53  77 W9        30.35R
PAYSON         CLOUDY    70  54  56 W9G15     30.23R
PAGE           MOCLDY    85  44  23 W5        30.05R
$$

AZZ009>014-017-060600-
NORTHEAST ARIZONA

CITY           SKY/WX    TMP DP  RH WIND       PRES   REMARKS
WINSLOW        CLOUDY    70  58  65 SW6       30.16R
SAINT JOHNS    CLOUDY    67  55  65 SE3       30.23S
WINDOW ROCK    CLOUDY    61  57  87 CALM      30.28R
SHOW LOW       CLOUDY    57  54  88 CALM      30.29R
$$

AZZ023-060600-
GREATER PHOENIX AREA

CITY           SKY/WX    TMP DP  RH WIND       PRES   REMARKS
PHOENIX        MOCLDY    85  66  53 SE8       29.93R
BUCKEYE        CLEAR     86  64  48 E17G24    29.91R
LUKE AFB       PTCLDY    86  66  51 E9        29.93R
DEER VALLEY    PTCLDY    83  66  56 E6        29.96R
SCOTTSDALE     PTCLDY    83  65  54 CALM      29.98R
MESA-GATEWAY   MOCLDY    81  66  61 SE6       29.96R
$$

AZZ027-028-060600-
SOUTHWEST MARICOPA COUNTY AND PINAL COUNTY

CITY           SKY/WX    TMP DP  RH WIND       PRES   REMARKS
CASA GRANDE    PTCLDY    77  70  78 S7        29.94S
GILA BEND      FAIR      92  62  36 S12       29.87R
$$

AZZ503-504-507>509-060600-
SOUTHEAST ARIZONA

CITY           SKY/WX    TMP DP  RH WIND       PRES   REMARKS
TUCSON         MOCLDY    79  63  57 CALM      30.06R
DAVIS-MONTHAN  PTCLDY    77  67  71 NE3       30.05R
NOGALES        CLOUDY    73  62  68 CALM      30.13R
SIERRA VISTA   CLOUDY    72  59  64 W2        30.19R
DOUGLAS        CLOUDY    70  64  81 NW7       30.15R
SAFFORD        CLOUDY    71  69  93 E5        30.05R
$$

AZZ020-021-025-026-031-060600-
SOUTHWEST ARIZONA

CITY           SKY/WX    TMP DP  RH WIND       PRES   REMARKS
YUMA           CLEAR     92  54  27 S8        29.82R
$$

CAZ031-033-041-043-047-048-061-060600-
SOUTHERN CALIFORNIA

CITY           SKY/WX    TMP DP  RH WIND       PRES   REMARKS
DOWNTOWN L.A.  CLOUDY    66  59  78 CALM      30.01R
L.A. AIRPORT   CLOUDY    64  59  83 W9        30.02R
SAN DIEGO      MOCLDY    68  58  70 W6        30.03R
BURBANK        MOCLDY    64  57  77 S6        30.02R
ONTARIO        PTCLDY    65  59  81 W9        30.01R
RIVERSIDE      CLEAR     66  59  78 W7        30.01R
PALM SPRINGS   CLEAR     91  58  32 NW15      29.84R
EL CENTRO NAS  CLEAR     89  55  31 SE9       29.81R
IMPERIAL       CLEAR     90  60  36 SE10      29.78R
BLYTHE         CLEAR     94  59  31 S16       29.81R
NEEDLES        MOCLDY    97  55  24 NW7       29.86R
$$

NVZ020-UTZ003-060600-
SOUTHERN NEVADA-UTAH

CITY           SKY/WX    TMP DP  RH WIND       PRES   REMARKS
LAS VEGAS      CLOUDY    91  50  24 N15G22    29.90R
SALT LAKE CITY CLEAR     78  65  63 NW10      30.02R
$$

NMZ009-TXZ055-060600-
NEW MEXICO-WEST TEXAS

CITY           SKY/WX    TMP DP  RH WIND       PRES   REMARKS
ALBUQUERQUE    LGT RAIN  71  58  63 W8        30.17R
EL PASO        MOCLDY    85  56  37 W16G23    30.04R
$$


........................KEY........................
SKY/WX - SKY CONDITION/WEATHER
TMP    - TEMPERATURE IN FAHRENHEIT
DP     - DEW POINT IN FAHRENHEIT
RH     - RELATIVE HUMIDITY IN PERCENT
WIND   - DIRECTION AND SPEED IN MILES PER HOUR (MPH)
VRB    - VARIABLE WIND DIRECTION
PRES   - MEAN SEA LEVEL PRESSURE IN INCHES OF MERCURY
         F - FALLING PRESSURE   R - RISING PRESSURE
         S - STEADY PRESSURE
VSB    - VISIBILITY IN MILES
HX     - HEAT INDEX IN FAHRENHEIT
WCI    - WIND CHILL INDEX IN FAHRENHEIT
TC     - TEMPERATURE IN CELSIUS WHICH IS ALSO KNOWN AS
         TEMPERATURE IN CENTIGRADE
AFB    - AIR FORCE BASE
         LUKE AFB IS LUKE AIR FORCE BASE
         DAVIS-MONTHAN IS DAVIS-MONTHAN AIR FORCE BASE
NAS    - NAVAL AIR STATION
         EL CENTRO NAS IS EL CENTRO NAVAL AIR STATION
N/A    - NOT AVAILABLE




USA.gov is the U.S. government's official web portal to all federal, state and local government web resources and services.